Date,TemperatureHighF,TemperatureAvgF,TemperatureLowF,DewpointHighF,DewpointAvgF,DewpointLowF,HumidityHigh,HumidityAvg,HumidityLow,PressureMaxIn,PressureMinIn,WindSpeedMaxMPH,WindSpeedAvgMPH,GustSpeedMaxMPH,PrecipitationSumIn
2013-1-1,31.5,17.0,-76.4,99.9,10.1,-7.2,80,68,32,29.90,29.73,26,4,26,0.35
2013-1-2,45.7,16.0,-39.6,31.7,8.0,-91.9,80,71,3,30.46,28.19,123,2,123,0.00
2013-1-3,29.5,17.5,10.0,9.2,4.9,-0.6,72,58,42,29.78,20.36,76,2,85,0.00
2013-1-4,43.7,26.1,13.3,20.3,10.0,2.0,69,51,38,29.75,29.64,9,4,9,0.04
2013-1-5,28.4,22.2,12.9,22.1,14.5,5.3,81,72,51,29.67,29.55,6,1,6,0.00
2013-1-6,44.2,30.9,18.1,23.2,18.5,11.5,83,62,40,29.61,29.49,10,4,10,0.08
2013-1-7,50.9,39.6,33.4,28.0,22.7,17.1,69,51,40,29.55,29.40,23,8,23,0.00
2013-1-8,56.7,45.7,38.3,30.7,26.7,22.4,66,48,37,29.55,29.37,24,6,24,0.00
2013-1-9,52.0,40.4,27.1,26.2,20.2,12.2,62,44,36,29.37,29.14,34,12,34,0.00
2013-1-10,36.3,27.4,20.1,23.9,14.8,8.5,79,59,41,29.40,29.31,13,4,13,0.00
2013-1-11,36.0,22.9,12.0,14.0,9.7,4.1,78,58,40,29.58,29.40,13,4,13,0.00
2013-1-12,32.7,16.7,8.1,11.4,4.0,0.3,70,58,41,29.67,29.58,12,4,12,0.00
2013-1-13,35.4,16.8,3.2,13.5,2.4,-6.2,64,54,40,29.73,29.67,8,3,8,0.00
2013-1-14,41.7,23.7,9.3,18.5,7.3,-2.1,60,50,39,29.78,29.67,13,4,13,0.00
2013-1-15,50.2,29.9,16.9,24.9,13.6,6.3,71,52,37,29.93,29.78,12,5,12,0.00
2013-1-16,56.7,35.7,21.7,29.3,15.8,7.4,56,45,35,29.93,29.81,12,6,12,0.00
2013-1-17,68.9,37.0,23.0,41.5,16.6,-54.4,57,44,36,29.84,29.73,55,5,55,0.00
2013-1-18,52.0,34.8,23.9,26.0,14.9,5.4,55,44,36,29.78,29.67,139,5,154,0.00
2013-1-19,118.4,37.5,-4.4,99.9,17.3,-25.1,74,45,35,29.75,28.10,71,6,112,0.00
2013-1-20,55.0,31.1,20.3,28.5,14.6,6.8,77,51,36,29.78,29.70,15,2,98,0.00
2013-1-21,55.0,30.0,15.3,28.5,14.9,4.1,80,56,36,29.70,29.55,13,4,13,0.00
2013-1-22,39.6,23.8,14.5,17.8,13.2,9.2,80,65,41,29.58,29.43,10,3,10,0.00
2013-1-23,54.3,31.8,23.0,28.4,20.6,16.4,80,65,37,29.49,29.25,25,4,26,0.00
2013-1-24,57.9,40.9,27.3,31.5,26.9,22.1,93,61,36,29.55,29.46,8,1,8,0.00
2013-1-25,50.0,43.3,37.2,40.4,34.2,26.5,91,71,49,29.52,29.28,14,5,14,0.04
2013-1-26,49.3,36.0,-96.0,99.9,23.5,14.2,95,62,38,31.70,29.28,23,4,40,0.04
2013-1-27,45.5,32.6,-76.5,99.9,19.4,14.5,81,58,38,29.43,29.37,51,4,51,0.24
2013-1-28,100.4,36.2,-7.8,64.6,20.3,-47.5,89,54,2,31.05,28.01,62,7,139,0.00
2013-1-29,86.0,38.7,-92.2,99.9,23.4,-37.9,66,48,2,31.05,29.43,121,6,121,0.00
2013-1-30,86.0,40.9,-25.8,84.1,24.9,-38.0,94,54,3,29.73,28.10,45,5,154,0.00
2013-1-31,68.9,39.0,6.6,59.5,26.2,-6.9,90,63,37,29.73,29.64,45,2,45,0.00
2013-2-1,57.7,36.9,-76.2,99.9,24.9,-44.8,90,64,35,29.73,29.64,166,3,166,0.00
2013-2-2,54.1,34.3,-40.2,31.7,22.6,-44.0,90,66,37,29.73,29.61,47,2,152,0.00
2013-2-3,140.0,45.3,28.6,99.9,28.0,20.6,100,57,35,29.61,29.52,50,4,50,0.00
2013-2-4,56.8,42.1,-40.2,50.0,23.1,-57.5,100,48,35,30.38,29.28,137,4,137,0.00
2013-2-5,54.5,40.2,-40.2,28.1,21.5,-50.0,64,48,36,29.37,29.14,36,5,36,0.00
2013-2-6,50.9,38.3,27.7,25.5,21.2,-18.1,75,52,9,29.43,29.25,50,3,50,0.00
2013-2-7,100.4,37.4,-9.6,99.9,18.4,-23.6,100,47,23,29.40,29.22,67,3,92,0.00
2013-2-8,82.4,30.9,16.7,82.4,16.9,10.9,100,59,37,29.49,29.40,12,3,152,0.00
2013-2-9,64.4,30.4,-40.2,25.2,17.0,-51.2,81,60,37,29.52,29.43,50,2,50,0.00
2013-2-10,54.3,34.4,-40.4,27.7,19.9,-57.2,86,59,36,29.58,27.54,37,2,63,0.00
2013-2-11,55.0,33.9,16.9,29.4,19.3,0.6,90,58,36,29.64,20.36,139,4,154,0.00
2013-2-12,56.5,38.1,23.7,29.8,23.1,-62.5,84,58,2,31.73,27.92,40,4,89,0.00
2013-2-13,70.3,37.5,28.6,58.3,24.1,21.4,82,60,22,29.78,29.67,97,4,134,0.00
2013-2-14,59.4,37.7,-76.4,99.9,25.2,-63.3,91,64,35,29.78,29.73,141,3,141,0.00
2013-2-15,63.9,40.7,24.3,35.7,27.4,21.3,96,64,34,29.78,29.55,63,4,92,0.00
2013-2-16,59.7,39.2,27.0,32.0,24.3,-9.0,92,59,35,29.58,29.43,23,7,67,0.00
2013-2-17,52.3,36.5,23.2,26.2,18.4,13.1,70,49,36,29.49,29.34,13,5,13,0.00
2013-2-18,44.8,35.4,22.8,21.3,18.5,15.4,81,53,38,29.34,29.14,9,1,9,0.00
2013-2-19,50.4,39.8,23.2,25.0,18.5,13.7,69,43,37,29.19,29.02,14,3,14,0.00
2013-2-20,49.5,32.3,16.0,24.2,16.9,10.0,85,56,37,29.28,29.19,20,4,20,0.00
2013-2-21,42.3,35.0,25.3,19.7,17.8,15.7,72,50,39,29.40,29.28,28,7,28,0.00
2013-2-22,48.7,38.9,30.7,27.4,21.3,15.7,74,50,38,29.37,29.10,25,7,25,0.00
2013-2-23,46.8,34.5,26.6,22.1,16.1,12.0,64,47,38,29.34,20.36,23,9,23,0.00
2013-2-24,51.4,34.1,19.4,26.0,17.2,12.2,75,52,37,29.28,20.36,13,4,13,0.00
2013-2-25,48.4,37.3,28.6,30.0,19.9,14.8,81,50,38,30.20,20.36,28,10,28,0.00
2013-2-26,53.1,44.0,33.6,26.8,20.2,13.5,43,38,36,30.23,30.11,36,4,36,0.00
2013-2-27,54.3,31.9,-76.2,99.9,17.1,7.5,80,47,36,30.20,30.14,8,3,8,0.00
2013-2-28,86.0,49.0,32.0,86.0,32.4,23.4,100,54,37,30.35,27.95,135,6,135,0.00
2013-3-1,68.2,47.4,-18.6,38.0,30.3,-69.2,80,55,5,30.38,27.93,148,10,148,0.00
2013-3-2,122.0,46.0,34.3,32.6,27.5,24.0,71,50,35,30.23,30.02,135,11,156,0.00
2013-3-3,82.4,38.4,-76.2,99.9,19.2,-56.8,61,45,36,30.14,20.79,157,15,157,0.00
2013-3-4,57.9,34.5,14.0,30.4,16.6,6.5,79,50,35,30.14,29.90,168,9,168,0.00
2013-3-5,46.4,34.9,24.3,26.7,17.8,10.4,74,50,38,29.90,29.64,15,4,15,0.00
2013-3-6,47.3,35.0,24.4,36.2,24.9,18.1,89,69,41,29.87,29.49,29,4,29,0.00
2013-3-7,56.7,36.4,18.3,29.1,20.3,12.3,82,55,35,29.96,29.87,15,5,15,0.00
2013-3-8,55.6,36.8,25.3,30.4,22.6,13.0,89,60,36,30.11,29.93,17,4,17,0.00
2013-3-9,63.3,40.5,16.7,34.3,21.9,11.0,82,51,34,30.35,30.11,12,4,12,0.00
2013-3-10,66.6,55.3,35.8,36.4,28.5,14.9,42,36,33,30.35,30.26,15,6,15,0.00
2013-3-11,61.7,54.9,45.9,34.5,31.8,29.8,54,42,35,30.23,30.17,16,7,16,0.00
2013-3-12,67.6,48.6,31.6,37.5,30.6,22.4,94,54,33,30.17,30.05,12,4,12,0.00
2013-3-13,71.8,51.5,37.4,40.2,29.7,23.1,67,44,32,30.14,30.05,10,2,10,0.00
2013-3-14,72.9,51.7,35.6,41.3,31.4,24.5,76,49,32,30.11,29.99,18,5,18,0.00
2013-3-15,67.8,49.4,33.6,37.6,28.7,22.8,71,46,33,30.14,30.08,18,6,18,0.00
2013-3-16,59.2,41.1,27.1,31.5,26.1,20.9,90,59,35,30.08,29.87,28,8,28,0.08
2013-3-17,48.0,37.1,30.0,23.6,16.8,10.5,62,44,38,30.14,29.96,28,13,28,0.00
2013-3-18,60.1,38.6,21.0,32.2,19.8,12.2,75,49,35,30.14,30.02,15,5,15,0.00
2013-3-19,53.2,38.4,27.9,40.2,22.2,13.3,93,53,36,30.08,29.73,15,2,15,0.00
2013-3-20,54.0,45.0,32.5,37.5,27.2,17.6,74,50,37,30.02,29.58,31,15,31,0.04
2013-3-21,47.7,36.5,29.5,23.1,16.2,10.7,59,43,38,30.11,20.47,28,10,28,0.00
2013-3-22,48.0,34.7,22.8,22.8,17.1,12.7,80,50,37,30.20,30.08,25,9,25,0.00
2013-3-23,51.8,34.8,23.0,26.2,18.1,13.3,73,52,36,30.20,30.11,13,3,13,0.00
2013-3-24,54.7,46.7,37.6,28.1,22.5,16.5,42,38,36,30.11,30.02,15,7,15,0.00
2013-3-25,55.9,43.8,30.2,29.3,22.0,15.5,61,42,36,30.05,29.84,13,5,13,0.00
2013-3-26,60.4,47.2,38.8,32.6,27.3,13.3,67,47,20,29.93,29.87,166,8,166,0.00
2013-3-27,63.0,46.6,30.2,36.6,31.0,24.5,94,58,34,29.93,29.84,164,12,164,0.00
2013-3-28,67.3,49.3,32.0,43.1,36.5,-40.6,96,66,33,30.08,29.93,156,16,157,0.08
2013-3-29,67.8,49.9,32.0,44.2,38.6,-19.8,94,71,33,30.14,20.70,161,12,161,0.00
2013-3-30,75.6,65.0,48.9,43.1,37.4,31.7,52,37,31,30.17,30.02,17,7,17,0.00
2013-3-31,72.3,54.2,32.5,40.8,33.3,27.2,86,49,32,30.02,29.87,20,6,20,0.00
2013-4-1,72.9,52.0,33.8,41.3,33.6,26.3,88,53,32,30.08,29.93,22,5,22,0.00
2013-4-2,72.9,51.3,32.0,41.1,33.0,28.6,92,55,32,30.11,30.05,20,5,20,0.00
2013-4-3,73.0,52.7,29.3,41.4,32.5,24.6,96,51,32,30.11,29.93,13,4,13,0.00
2013-4-4,66.6,52.4,43.0,41.0,33.5,27.9,92,51,33,29.93,29.70,31,7,31,0.08
2013-4-5,63.0,49.7,39.2,40.9,33.1,27.9,94,57,35,29.93,28.10,45,6,92,0.00
2013-4-6,61.7,48.5,41.5,38.0,31.0,25.7,84,52,35,29.93,29.78,45,7,45,0.08
2013-4-7,50.0,45.0,41.4,32.6,27.6,23.1,64,51,39,29.78,29.61,25,12,45,0.00
2013-4-9,66.4,57.8,45.1,36.4,31.0,25.9,48,36,33,30.23,30.14,14,6,14,0.00
2013-4-10,63.9,49.3,40.1,36.4,27.6,21.5,53,43,35,30.17,30.05,31,9,31,0.00
2013-4-11,62.1,44.3,26.8,33.3,23.8,18.0,75,46,34,30.17,30.05,20,6,20,0.00
2013-4-12,67.6,44.8,23.2,37.5,25.1,-46.5,78,49,33,30.08,29.73,156,9,157,0.00
2013-4-13,86.0,42.9,34.7,56.7,20.5,13.9,46,41,37,29.96,27.92,170,19,170,0.00
2013-4-14,34.7,32.8,29.7,14.5,13.9,12.9,51,45,42,29.96,29.96,112,12,112,0.00
2013-4-15,50.4,38.2,31.1,31.0,27.2,22.8,88,66,40,30.02,29.87,31,7,31,0.00
2013-4-16,50.9,38.4,28.6,32.4,24.9,18.7,92,62,37,30.26,30.02,21,6,21,0.08
2013-4-17,59.7,41.9,22.6,32.0,23.9,16.5,81,52,35,30.35,30.26,15,4,15,0.00
2013-4-18,68.2,49.9,31.3,38.0,29.2,20.7,73,47,33,30.32,30.23,15,5,15,0.00
2013-4-19,59.0,50.8,42.4,39.4,31.1,26.9,73,48,35,30.20,30.08,26,9,26,0.00
2013-4-20,66.0,50.5,35.6,36.7,29.2,23.5,72,46,33,30.20,30.11,20,9,20,0.00
2013-4-21,67.3,47.7,29.1,37.0,29.2,23.1,83,52,33,30.17,30.08,25,8,25,0.00
2013-4-22,60.4,47.1,31.6,32.6,26.0,11.1,72,45,35,30.32,30.17,22,8,22,0.00
2013-4-23,70.2,45.8,18.3,39.2,22.8,8.3,67,42,32,30.32,30.05,24,6,24,0.00
2013-4-24,74.7,50.4,23.7,42.0,25.3,7.8,54,38,31,30.23,29.99,13,4,13,0.00
2013-4-25,80.1,55.7,29.1,45.7,29.8,13.8,56,38,30,30.11,29.96,22,6,22,0.00
2013-4-26,85.6,60.7,32.5,49.7,34.8,21.7,71,40,29,30.20,30.11,15,5,15,0.00
2013-4-27,77.9,58.8,34.0,44.8,33.5,22.8,70,40,31,30.20,30.11,28,9,28,0.00
2013-4-28,70.2,58.2,47.7,39.2,31.0,23.7,41,36,32,30.14,30.02,22,12,22,0.00
2013-4-29,61.5,52.9,38.8,32.8,28.0,-23.9,44,38,5,30.02,24.44,29,12,79,0.00
2013-4-30,61.2,42.7,24.3,32.8,20.8,-53.9,69,42,34,30.29,29.62,21,6,21,0.00
2013-5-1,69.6,46.6,20.3,39.2,24.7,-89.7,76,44,33,30.43,22.77,26,5,34,0.00
2013-5-2,82.0,57.9,9.3,47.5,30.8,-18.7,54,36,26,31.49,30.20,15,5,15,0.00
2013-5-3,76.8,58.7,-58.5,43.9,31.4,-75.5,53,36,31,30.23,30.14,18,6,18,0.00
2013-5-4,72.9,56.9,34.0,41.3,31.2,-36.0,60,39,3,30.14,29.52,25,10,25,0.00
2013-5-5,77.5,62.5,43.9,44.5,33.8,-58.3,41,34,31,29.93,29.75,28,10,34,0.00
2013-5-6,86.0,67.2,43.0,49.9,37.8,26.0,54,35,29,29.87,29.73,27,8,34,0.00
2013-5-7,86.4,68.1,47.7,50.3,40.8,30.6,65,39,29,29.93,29.81,26,7,18,0.00
2013-5-8,89.1,65.9,42.8,55.1,40.9,32.8,74,43,28,30.05,29.93,27,5,34,0.00
2013-5-9,90.5,68.5,45.1,52.9,42.3,35.6,73,41,28,30.11,30.02,26,5,20,0.00
2013-5-10,95.9,68.5,45.5,54.3,43.0,35.7,76,42,27,30.17,30.05,27,5,110,0.04
2013-5-11,113.0,72.6,49.8,73.1,46.6,39.8,80,43,27,30.17,29.99,16,5,16,0.00
2013-5-12,88.0,71.1,54.7,51.3,44.0,21.9,71,39,28,30.08,29.99,27,6,35,0.00
2013-5-13,73.2,59.4,45.9,42.4,36.9,28.6,78,45,33,30.11,29.99,28,9,28,0.00
2013-5-14,75.4,56.0,34.0,42.5,33.7,27.0,84,46,31,30.11,29.99,16,5,45,0.00
2013-5-15,72.9,54.8,41.4,41.3,32.1,25.5,62,43,32,30.05,29.96,20,6,20,0.00
2013-5-16,69.1,52.7,40.1,41.3,34.9,30.2,76,53,33,29.99,29.84,17,4,17,0.04
2013-5-17,65.8,53.9,45.0,41.2,33.7,27.0,78,49,34,30.02,29.90,24,7,24,0.00
2013-5-18,67.3,50.2,35.8,37.5,30.8,27.1,79,50,33,30.17,30.02,23,6,23,0.00
2013-5-19,46.8,43.3,37.2,28.6,27.6,25.8,69,54,48,30.20,30.17,13,5,13,0.00
2013-5-21,43.0,39.4,37.2,21.5,19.8,18.3,49,45,41,29.90,29.84,22,10,22,0.00
2013-5-22,51.3,40.8,28.2,25.8,21.6,16.0,70,47,37,29.90,29.84,16,6,16,0.00
2013-5-24,66.2,60.7,50.5,36.8,32.5,26.0,39,35,33,29.99,29.96,22,12,22,0.00
2013-5-25,73.4,62.8,-40.5,42.4,36.7,-58.3,72,40,31,29.96,29.87,14,6,45,0.00
2013-5-26,70.7,56.0,45.7,48.7,39.1,-22.0,95,58,32,29.99,29.90,24,6,24,0.08
2013-5-27,65.1,50.2,38.3,48.3,37.2,31.5,90,63,35,29.99,29.75,22,6,22,0.20
2013-5-28,71.6,57.6,45.1,40.2,34.8,29.9,69,44,32,29.87,29.75,18,6,18,0.00
2013-5-29,66.6,55.1,45.1,46.7,36.8,27.6,95,55,33,29.96,29.67,33,11,33,0.16
2013-5-30,69.3,53.8,35.4,38.8,30.8,24.9,76,43,33,30.14,29.96,22,8,22,0.00
2013-5-31,78.1,56.7,32.9,44.8,34.0,25.6,86,46,31,30.23,30.14,15,5,15,0.00
2013-6-1,84.4,64.0,40.6,48.6,37.8,29.5,70,40,29,30.17,29.96,18,6,20,0.00
2013-6-2,78.8,61.3,42.3,45.3,37.9,28.4,81,45,31,30.02,29.93,25,7,25,0.00
2013-6-3,82.8,61.4,35.4,47.7,36.9,27.6,79,43,29,30.05,29.96,15,5,15,0.00
2013-6-4,86.4,65.8,38.7,50.3,36.8,21.8,56,35,29,30.08,29.99,16,5,16,0.00
2013-6-5,93.7,72.6,46.0,54.7,41.8,28.4,54,34,27,30.05,29.93,17,6,17,0.00
2013-6-6,95.7,73.8,51.1,56.2,43.8,33.3,59,36,27,30.02,29.90,15,6,15,0.00
2013-6-7,92.5,72.6,49.3,53.6,43.0,33.8,66,36,27,30.05,29.99,28,8,28,0.00
2013-6-8,93.9,71.8,45.9,54.9,43.9,35.9,73,39,27,30.08,29.96,17,6,17,0.00
2013-6-9,90.5,70.3,48.9,52.9,40.7,29.6,55,35,28,30.02,29.87,18,7,18,0.00
2013-6-10,81.7,56.1,37.0,47.2,31.9,23.7,64,41,30,29.93,29.81,15,3,15,0.00
2013-6-15,85.3,84.8,84.6,49.3,49.0,48.8,29,29,29,29.90,29.90,9,7,9,0.00
2013-6-20,72.9,63.1,46.9,41.3,35.5,29.2,54,36,32,30.05,29.96,23,10,23,0.00
2013-6-21,67.5,55.9,44.4,40.1,34.3,30.3,76,46,33,30.08,30.05,16,4,16,0.00
2013-6-22,84.2,63.9,36.9,48.5,38.8,29.9,81,43,29,30.08,29.87,14,5,14,0.00
2013-6-23,69.8,61.6,55.6,54.9,44.3,33.9,89,56,34,29.87,29.70,9,2,9,0.12
2013-6-24,69.1,58.2,50.5,52.9,44.5,37.6,96,65,34,29.75,29.67,9,2,9,0.16
2013-6-25,67.8,60.6,54.1,50.7,41.7,36.5,85,51,34,29.87,29.70,14,5,14,0.00
2013-6-26,75.0,62.1,52.0,48.4,44.5,40.7,83,55,33,30.05,29.87,12,4,12,0.00
2013-6-27,91.2,70.7,47.8,53.6,47.0,42.6,88,48,28,30.17,30.05,15,5,17,0.00
2013-6-28,98.8,78.5,55.2,57.8,50.7,45.3,80,42,26,30.20,30.02,17,6,17,0.00
2013-6-29,95.0,78.8,61.0,55.8,49.6,42.6,69,38,27,30.08,29.96,15,6,15,0.00
2013-6-30,100.8,81.7,58.5,59.0,50.3,42.1,62,36,25,30.05,29.87,22,7,22,0.00
2013-7-1,104.4,86.9,70.9,61.4,51.5,42.9,42,30,25,30.02,29.93,17,7,17,0.00
2013-7-2,106.9,85.8,63.0,62.6,53.9,46.5,68,36,24,30.05,29.96,21,6,21,0.00
2013-7-3,98.3,79.5,61.0,57.3,49.0,38.9,62,36,26,30.08,29.96,21,6,21,0.00
2013-7-4,90.7,72.6,50.5,52.6,41.7,30.5,50,34,28,30.02,29.90,22,7,22,0.00
2013-7-5,85.5,66.3,43.2,49.6,39.0,30.4,67,38,29,29.96,29.84,20,6,20,0.00
2013-7-6,89.9,67.3,39.2,52.4,38.1,22.5,58,35,28,29.93,29.78,18,6,18,0.00
2013-7-7,94.8,72.9,48.7,55.6,43.6,31.8,66,37,27,29.90,29.78,20,6,20,0.00
2013-7-8,92.3,72.6,47.1,53.6,43.7,33.7,72,38,27,30.02,29.90,15,5,15,0.00
2013-7-9,100.6,78.0,51.3,59.2,45.9,33.6,57,34,25,30.08,29.93,17,5,17,0.00
2013-7-10,99.3,78.3,56.3,58.4,47.0,38.4,56,35,26,30.02,29.87,24,7,24,0.00
2013-7-11,90.0,71.3,52.2,52.5,41.5,31.5,56,35,28,29.96,29.87,18,6,20,0.00
2013-7-12,86.9,66.1,43.3,50.8,36.9,23.9,49,35,29,30.02,29.90,22,7,22,0.00
2013-7-13,86.4,67.2,42.4,50.3,39.2,28.0,62,37,29,30.11,29.99,17,6,17,0.00
2013-7-14,97.3,73.4,44.1,57.2,41.1,8.1,43,32,26,30.11,29.93,18,5,32,0.00
2013-7-15,93.7,75.0,51.4,54.7,42.7,28.5,43,32,27,29.99,29.84,21,8,21,0.00
2013-7-16,89.8,74.4,56.5,52.2,42.0,29.8,37,31,28,29.93,29.84,17,8,17,0.00
2013-7-17,96.3,76.1,49.1,56.7,44.1,31.8,53,33,27,30.11,29.93,17,6,17,0.00
2013-7-18,99.3,76.8,48.7,58.4,44.9,31.7,58,34,26,30.14,29.99,18,6,18,0.00
2013-7-19,100.0,77.8,49.1,59.0,44.7,27.0,49,32,26,30.08,29.93,20,6,20,0.00
2013-7-20,100.9,76.9,48.4,59.2,43.8,25.1,45,31,25,29.99,29.87,20,6,20,0.00
2013-7-21,103.5,76.0,43.5,60.8,42.7,21.1,42,31,25,29.93,29.84,17,6,17,0.00
2013-7-22,101.5,77.2,48.0,59.2,44.7,29.6,51,33,25,29.99,29.90,17,5,17,0.00
2013-7-23,102.0,77.9,47.5,59.6,44.4,25.1,46,31,25,30.02,29.90,18,6,18,0.00
2013-7-24,102.4,79.4,56.8,59.9,45.3,30.3,38,31,25,30.05,29.96,16,5,16,0.00
2013-7-25,103.8,80.4,52.3,61.1,46.4,30.5,46,31,25,30.05,29.96,22,6,22,0.00
2013-7-26,102.6,80.4,57.4,59.9,45.8,29.8,35,30,25,30.11,29.99,20,6,20,0.00
2013-7-27,93.6,73.0,46.9,54.6,41.1,24.7,45,32,27,30.11,29.93,17,6,17,0.00
2013-7-28,91.2,69.7,45.9,53.6,39.6,26.1,50,34,28,29.96,29.87,22,6,163,0.00
2013-7-29,92.3,69.4,42.6,53.5,40.7,28.6,66,37,27,29.96,29.87,17,6,17,0.00
2013-7-30,93.7,71.9,46.8,54.7,42.7,32.6,62,37,27,30.08,29.96,13,5,13,0.00
2013-7-31,89.4,71.2,56.8,52.0,41.4,34.3,46,35,28,30.08,29.93,18,5,18,0.00
2013-8-1,81.9,62.9,54.9,55.3,45.0,34.0,92,56,30,30.05,29.93,29,8,29,0.08
2013-8-2,85.6,64.2,43.5,49.7,39.5,33.7,76,43,29,30.08,29.96,22,6,22,0.00
2013-8-3,91.4,69.3,43.5,53.6,42.7,34.2,76,41,27,30.08,29.96,17,5,17,0.00
2013-8-4,96.3,74.7,51.3,56.7,44.4,34.7,58,35,27,30.05,29.90,18,6,18,0.00
2013-8-5,97.0,76.4,54.5,57.2,44.6,32.6,48,33,26,30.02,29.90,17,6,17,0.00
2013-8-6,99.0,76.5,49.8,57.9,45.8,35.0,63,35,26,30.02,29.90,20,5,20,0.00
2013-8-7,90.9,73.7,53.2,53.3,42.3,30.7,47,33,28,30.02,29.93,25,7,25,0.00
2013-8-8,92.8,75.8,56.1,53.9,43.8,33.7,46,33,27,29.99,29.87,21,5,21,0.00
2013-8-9,93.7,72.5,58.6,54.7,43.3,37.5,59,36,27,29.96,29.84,29,5,29,0.00
2013-8-10,84.7,62.7,46.2,49.2,42.5,38.5,88,52,29,30.02,29.93,23,5,23,0.00
2013-8-11,87.1,67.3,47.5,51.0,42.8,37.5,75,44,29,30.05,29.93,18,5,18,0.00
2013-8-12,92.5,70.8,49.8,53.6,44.7,37.6,73,42,27,30.02,29.93,23,6,23,0.00
2013-8-13,94.8,72.8,48.0,55.6,45.1,37.8,73,40,27,30.08,29.93,16,5,16,0.00
2013-8-14,96.6,74.7,52.2,57.0,44.1,35.1,57,35,27,29.99,29.87,17,6,17,0.00
2013-8-15,94.8,73.1,51.3,55.6,44.0,35.5,59,37,27,29.99,29.87,22,6,22,0.00
2013-8-16,92.1,74.1,58.1,53.6,46.8,41.3,64,40,27,30.02,29.96,17,6,17,0.00
2013-8-17,70.7,60.4,54.1,48.6,44.8,40.7,78,58,37,30.05,30.02,6,2,6,0.00
2013-8-20,90.3,82.1,61.5,52.8,47.2,32.9,34,30,28,30.05,29.96,15,7,15,0.00
2013-8-21,91.4,70.5,49.3,53.6,39.4,24.7,42,33,27,30.05,29.90,14,5,14,0.00
2013-8-22,85.1,66.5,54.5,55.9,42.4,29.4,75,44,29,29.96,29.90,24,4,24,0.00
2013-8-23,88.9,69.9,52.2,51.6,45.6,40.0,77,45,28,29.93,29.81,17,7,17,0.00
2013-8-24,87.3,66.9,50.9,51.3,45.0,39.7,72,48,29,29.90,29.78,22,4,22,0.04
2013-8-25,81.3,60.2,50.5,57.4,48.9,39.5,95,69,30,29.93,29.81,17,7,17,0.43
2013-8-26,82.2,63.5,48.7,52.0,44.7,39.1,96,57,30,29.96,29.90,13,13,13,0.00
2013-8-27,88.0,67.0,45.5,51.4,44.9,39.4,91,51,28,29.96,29.78,13,13,13,0.00
2013-8-28,92.1,71.6,52.5,53.6,46.6,41.6,81,45,27,29.90,29.81,13,13,13,0.00
2013-8-29,86.0,69.8,58.1,50.1,46.3,42.5,72,45,29,30.05,29.90,13,13,13,0.00
2013-8-30,88.9,69.7,49.8,51.9,46.4,40.4,91,48,28,30.14,29.99,13,13,13,0.00
2013-8-31,91.2,72.0,50.2,53.6,46.6,38.6,84,44,28,30.05,29.84,13,13,13,0.00
2013-9-1,97.7,74.6,52.0,57.2,45.5,37.5,67,37,26,29.90,29.75,13,13,13,0.00
2013-9-2,91.9,70.3,51.3,53.4,45.1,41.1,72,43,27,29.93,29.81,13,13,13,0.00
2013-9-3,90.7,68.1,48.9,53.1,44.7,39.7,84,47,28,29.99,29.87,13,13,13,0.00
2013-9-4,91.2,67.8,47.3,53.6,44.4,39.5,82,47,28,30.02,29.90,13,13,13,0.00
2013-9-5,80.2,60.2,48.6,46.9,40.9,35.7,81,52,30,30.05,29.87,13,13,13,0.00
2013-9-6,66.0,53.5,50.2,52.8,43.4,38.1,94,71,38,30.11,30.02,13,13,13,0.04
2013-9-7,82.4,74.2,59.9,47.8,43.5,38.6,48,34,29,30.05,29.96,13,0,0,0.04
2013-9-8,81.9,65.0,46.4,47.4,41.9,34.5,77,46,30,30.08,29.99,0,0,0,0.00
2013-9-9,90.7,68.3,44.1,53.1,42.1,34.5,78,42,28,30.05,29.93,0,0,0,0.00
2013-9-10,92.1,70.6,46.6,53.6,42.1,33.2,66,37,27,29.99,29.87,0,0,0,0.00
2013-9-11,92.8,72.4,48.0,53.9,42.7,32.9,64,36,27,30.05,29.93,0,0,0,0.00
2013-9-12,94.8,74.8,50.2,55.6,43.9,33.5,58,34,27,30.02,29.90,0,0,0,0.00
2013-9-13,89.6,70.2,50.0,52.2,40.6,31.8,53,35,28,29.93,29.81,0,0,0,0.00
2013-9-14,94.3,71.2,48.0,55.2,45.0,36.3,83,43,27,29.87,29.75,0,0,0,0.00
2013-9-15,69.8,64.1,59.5,40.4,39.2,37.9,45,40,35,29.78,29.75,0,0,0,0.00
2013-9-21,69.8,59.1,47.7,39.2,34.2,31.9,56,40,32,29.75,29.67,0,0,0,0.00
2013-9-22,47.8,42.8,39.7,33.7,32.0,30.5,78,66,55,29.78,29.75,0,0,0,0.00
2013-9-27,65.5,56.5,50.7,43.9,38.0,30.8,77,52,33,30.05,29.93,0,0,0,0.00
2013-9-28,65.7,56.9,46.8,47.2,39.2,34.3,84,54,35,29.93,29.58,0,0,0,0.31
2013-9-29,57.9,49.8,43.0,47.8,36.2,26.8,86,62,37,29.73,29.49,0,0,0,0.35
2013-9-30,63.5,49.9,37.6,45.7,29.9,23.6,80,48,34,29.93,29.55,0,0,0,0.56
2013-10-1,73.0,26.1,-15.7,41.4,1.9,-54.9,84,41,11,30.11,29.93,25,1,25,0.04
2013-10-2,73.0,46.3,25.7,41.4,28.7,21.0,83,56,32,30.11,29.93,2,2,25,0.00
2013-10-3,58.5,46.1,30.2,32.8,29.4,24.8,88,56,35,30.32,30.02,25,2,25,0.04
2013-10-4,64.4,44.3,25.3,34.6,27.3,21.5,90,56,33,30.38,30.29,25,2,25,0.00
2013-10-5,78.1,53.0,28.2,45.0,32.1,21.6,83,49,30,30.32,30.14,25,5,74,0.00
2013-10-6,81.1,55.1,30.6,46.8,32.7,22.9,80,46,30,30.14,29.93,74,6,74,0.00
2013-10-7,58.3,40.2,-42.0,57.2,23.9,-57.4,100,55,36,29.99,29.87,74,6,74,0.00
2013-10-8,140.0,41.6,-42.0,99.9,23.8,-57.4,100,55,18,29.99,29.84,6,6,74,0.00
2013-10-9,52.9,42.7,34.5,30.4,27.8,26.2,81,57,38,29.96,27.23,137,6,137,0.00
2013-10-10,65.3,42.3,-42.0,35.4,24.2,-44.5,86,52,33,27.29,27.20,80,4,80,0.00
2013-10-11,60.6,40.2,-40.2,32.8,23.4,-54.4,91,57,2,27.34,27.29,78,4,159,0.00
2013-10-12,54.5,42.4,32.0,32.3,27.8,21.6,80,58,37,27.37,27.26,10,3,67,0.00
2013-10-13,57.7,48.8,35.1,35.8,31.9,26.9,75,55,36,27.52,27.37,50,5,134,0.00
2013-10-14,71.8,43.2,23.5,32.2,25.2,18.2,85,54,17,27.58,27.52,67,5,67,0.00
2013-10-15,65.5,43.5,-76.2,99.9,24.7,16.4,75,49,33,27.58,27.37,40,3,40,0.00
2013-10-16,68.2,44.5,-40.2,38.0,25.5,-44.0,80,50,33,27.37,27.32,142,8,156,0.00
2013-10-17,67.5,45.0,25.5,37.3,26.0,19.0,100,50,33,27.43,27.37,13,3,13,0.00
2013-10-18,68.5,45.3,24.3,38.3,26.9,18.4,81,52,33,27.46,27.34,9,3,9,0.00
2013-10-19,80.8,51.0,27.3,46.4,30.3,21.4,84,49,30,27.37,27.26,10,4,10,0.00
2013-10-20,75.4,49.5,27.3,42.6,28.1,18.7,75,46,31,27.37,27.29,12,3,12,0.00
2013-10-21,77.0,51.2,30.2,44.0,30.1,21.3,76,47,31,27.37,27.29,12,3,12,0.00
2013-10-22,76.5,50.6,28.4,43.6,30.5,22.2,82,49,31,27.34,27.23,12,3,12,0.00
2013-10-23,73.4,49.2,29.7,41.6,30.3,23.1,87,52,31,27.29,27.20,13,4,13,0.00
2013-10-24,72.3,48.4,27.9,40.8,30.4,22.8,88,54,32,27.29,27.20,10,3,10,0.00
2013-10-25,75.2,50.0,29.7,42.5,31.7,24.2,93,54,31,27.40,27.29,12,4,12,0.00
2013-10-26,71.8,47.2,27.9,40.3,29.1,23.0,88,53,32,27.43,27.26,13,4,13,0.00
2013-10-27,55.8,40.3,29.1,42.5,31.9,25.1,96,74,38,27.29,26.96,20,7,20,0.16
2013-10-28,42.4,37.7,31.5,40.9,22.2,13.7,95,55,40,27.20,27.02,26,11,26,0.04
2013-10-29,52.9,36.1,22.8,26.6,18.1,11.8,72,49,36,27.20,27.08,8,3,8,0.00
2013-10-30,62.6,40.0,22.5,33.8,23.6,16.6,81,55,34,27.29,27.17,13,4,13,0.00
2013-10-31,63.7,48.4,37.4,38.6,31.3,23.2,78,53,37,27.40,27.29,17,5,17,0.00
2013-11-1,131.2,44.4,29.8,99.9,31.1,-23.2,98,66,5,27.40,27.14,143,4,143,0.00
2013-11-2,51.3,41.8,-24.5,36.7,27.7,-35.5,87,59,30,27.20,27.02,137,10,118,0.00
2013-11-3,46.8,37.1,29.7,26.7,22.6,10.4,79,57,38,27.23,27.14,118,5,118,0.00
2013-11-4,55.9,40.9,6.6,29.3,22.0,-7.3,66,48,36,27.26,27.20,156,6,156,0.00
2013-11-5,53.2,43.2,-40.2,37.5,30.9,-50.9,81,62,46,27.34,27.23,45,5,134,0.00
2013-11-6,138.7,47.2,-76.0,99.9,36.5,11.2,96,68,14,27.40,27.32,31,3,156,0.00
2013-11-7,136.8,46.0,32.0,99.9,32.0,12.0,86,60,41,27.32,27.05,71,7,115,0.08
2013-11-8,49.3,40.9,33.1,28.5,24.2,19.9,73,52,38,27.29,27.23,12,2,112,0.00
2013-11-9,46.6,36.1,25.5,32.1,26.1,20.5,88,69,44,27.23,27.20,6,1,6,0.00
2013-11-10,61.0,42.9,31.8,36.3,30.9,28.1,92,66,36,27.29,27.20,8,2,8,0.00
2013-11-11,45.0,40.7,35.1,39.9,33.8,29.5,94,77,56,27.40,27.29,8,1,8,0.00
2013-11-12,64.8,46.7,39.2,37.0,34.7,32.2,83,65,35,27.49,27.32,13,2,13,0.00
2013-11-13,60.6,42.2,28.9,36.2,29.0,21.7,96,64,35,27.55,27.37,9,2,9,0.00
2013-11-14,51.3,35.1,24.8,26.5,22.0,18.0,88,62,37,27.37,27.17,16,5,16,0.00
2013-11-15,47.3,33.6,18.3,26.4,18.7,11.9,82,57,38,27.17,26.69,21,5,21,0.00
2013-11-16,48.6,42.3,39.0,24.4,21.9,18.7,51,44,38,26.96,26.96,29,12,29,0.00
2013-11-17,58.5,41.7,28.9,30.9,22.7,16.0,71,48,35,27.14,27.02,12,3,12,0.00
2013-11-18,53.4,41.8,31.1,28.6,25.1,20.1,73,53,37,27.11,26.93,21,6,21,0.00
2013-11-19,51.6,46.9,42.1,41.2,34.2,26.6,87,63,46,26.99,26.99,20,6,20,0.04
2013-11-20,42.8,32.5,17.2,39.2,14.7,-1.0,87,48,39,27.46,27.02,16,9,16,0.00
2013-11-21,37.9,20.8,7.9,15.1,2.0,-9.1,49,44,39,27.70,27.46,10,4,10,0.00
2013-11-22,39.2,19.5,5.4,16.3,1.9,-9.7,55,46,39,27.73,27.61,12,3,12,0.00
2013-11-23,41.7,20.6,5.0,18.5,4.1,-7.7,63,49,39,27.61,27.37,6,2,6,0.00
2013-11-24,57.0,27.3,7.0,29.6,9.6,-4.3,71,48,35,27.40,27.29,10,3,10,0.00
2013-11-25,50.9,27.9,11.3,25.5,11.4,1.5,71,51,37,27.46,27.37,8,2,8,0.00
2013-11-26,48.0,27.7,14.5,23.6,12.5,6.5,73,54,37,27.37,27.20,6,2,6,0.00
2013-11-27,44.1,29.0,18.7,20.7,14.5,9.5,71,56,39,27.23,27.11,8,2,8,0.00
2013-11-28,53.6,29.1,11.7,27.3,14.3,3.8,77,56,36,27.20,27.11,8,2,8,0.00
2013-11-29,59.5,36.9,17.4,31.8,19.8,10.2,82,54,35,27.26,27.20,147,4,147,0.31
2013-11-30,60.4,43.1,-76.4,99.9,25.4,-79.2,85,51,3,27.32,27.20,110,5,112,0.83
2013-12-1,65.1,52.1,9.7,36.0,29.4,-62.6,63,43,2,27.20,26.84,125,11,141,0.31
2013-12-2,52.3,39.6,28.6,39.4,27.0,13.1,86,62,39,29.91,27.20,28,7,28,0.31
2013-12-3,30.2,22.9,13.8,20.8,9.3,-1.3,80,57,42,30.12,29.88,22,6,22,0.00
2013-12-4,26.8,13.7,3.0,6.7,-3.2,-11.9,54,46,42,30.18,30.09,90,4,90,0.00
2013-12-5,32.0,12.0,-2.4,16.3,-4.5,-17.7,55,47,42,30.15,30.00,9,2,9,0.00
2013-12-6,32.0,12.3,9.9,17.6,0.2,-3.1,61,58,55,30.03,29.88,72,6,72,0.00
2013-12-7,15.6,3.9,-20.6,2.8,-9.8,-35.3,61,52,44,30.24,29.91,20,6,20,0.00
2013-12-8,20.8,-1.4,-20.9,1.8,-17.8,-35.7,45,45,43,30.41,30.20,62,3,130,0.00
2013-12-9,32.9,13.9,-2.9,11.7,-3.8,-19.0,52,45,41,30.41,30.26,15,4,15,0.00
2013-12-10,35.8,20.0,5.0,26.5,4.4,-9.6,80,51,41,30.29,30.24,7,1,7,0.00
2013-12-11,43.2,26.4,-4.2,19.8,11.3,-21.5,77,55,39,30.26,30.18,6,2,7,0.04
2013-12-12,41.0,31.1,21.2,17.9,12.7,5.8,56,46,39,30.18,30.03,13,4,13,0.00
2013-12-13,50.4,34.6,24.1,25.7,19.9,14.7,82,56,38,30.35,30.12,34,3,45,0.00
2013-12-14,49.6,35.9,25.3,25.0,21.7,19.4,83,58,38,30.35,30.29,100,5,100,0.00
2013-12-15,60.1,42.4,30.0,32.3,24.7,19.0,91,51,35,30.32,30.26,10,2,10,0.00
2013-12-16,57.2,36.7,23.0,30.1,22.8,17.7,90,61,35,30.35,30.24,7,2,7,0.00
2013-12-17,59.9,41.9,31.6,32.2,21.4,15.3,59,45,35,30.24,30.03,10,4,10,0.00
2013-12-18,42.8,35.2,30.2,30.7,23.1,19.2,80,62,46,30.06,29.88,10,1,10,0.00
2013-12-19,39.0,28.6,17.4,25.7,11.1,5.1,80,48,39,30.15,29.94,13,1,13,0.00
2013-12-20,44.8,31.5,17.8,32.3,16.1,5.3,76,53,43,30.09,29.76,25,7,25,0.00
2013-12-21,55.8,45.6,40.3,29.4,25.9,23.5,55,46,36,30.09,29.79,28,9,28,0.00
2013-12-22,58.1,43.4,36.1,31.3,26.6,23.9,66,53,36,30.26,30.09,13,3,13,0.00
2013-12-23,55.9,43.3,36.3,31.3,26.3,23.2,67,52,38,30.35,30.18,23,6,23,0.00
2013-12-24,51.3,34.1,22.8,25.8,21.3,17.5,85,62,37,30.44,30.35,10,2,10,0.00
2013-12-25,53.1,36.4,-40.2,26.8,20.0,-56.6,77,53,36,30.38,30.26,9,4,9,0.00
2013-12-26,60.6,39.9,-40.2,32.8,21.1,-56.6,86,48,35,30.29,27.94,10,4,10,0.04
2013-12-27,47.8,38.3,30.0,23.4,18.5,14.4,59,45,38,30.20,30.09,15,4,15,0.00
2013-12-28,52.3,32.4,17.6,26.5,17.9,11.0,82,58,36,30.35,30.20,6,1,6,0.00
2013-12-29,50.0,32.3,20.5,26.5,15.3,-35.4,80,51,3,30.35,30.18,8,3,8,0.04
2013-12-30,55.6,39.7,-40.2,37.2,19.1,-52.1,54,44,37,30.20,30.09,10,3,10,0.00
2013-12-31,52.2,41.6,33.8,26.5,20.5,17.1,53,43,36,30.24,30.12,13,2,13,0.00
2014-1-1,55.6,35.8,23.0,29.0,21.7,16.6,83,59,36,30.29,30.20,9,1,9,0.04
2014-1-2,90.7,39.8,-4.4,90.7,24.2,-9.0,100,57,35,30.24,29.97,12,4,12,0.00